User: anonymous   Login
Location: Bernadets
(43.3537°N, 0.3167°E)
Time: 23:59:29
(UTC+00:00)
Language:

FENGYUN 1C DEB - Orbit

View from above orbital plane
View from above orbital plane
View from above satellite
View from above satellite

Ground track
Ground track

The orbit data is extracted from the following two-line orbital elements,

1 33681U 99025DFS 22222.59280965  .00001051  00000-0  73685-3 0  9999
2 33681  99.2105 266.2613 0104855 152.1782   1.8437 13.97978257732535
Epoch (UTC): 10 August 2022 14:13:38
Eccentricity: 0.0104855
inclination: 99.2105°
perigee height: 824 km
apogee height: 977 km
right ascension of ascending node: 266.2613°
argument of perigee: 152.1782°
revolutions per day: 13.97978257
mean anomaly at epoch: 1.8437°
orbit number at epoch: 73253

The dashed part of the orbit path shows where the satellite is in the earth's shadow,  

DLR